Date String (YYYY-MM-DD hh:mm:ss) UTC,Instrument flags,Ambient pressure (hPa),Sample flow (lpm),Bypass flow (lpm),Sample temperature (°C),Ambient temperature (°C),ASC tube jacket temperature (°C),LED temperature (°C),Box temperature (°C),Sample RH (%),Span deviation,Mass concentration (μg/m³),Mass concentration (μg/m³),Mass concentration (μg/m³)
DateTimeUTC,F1_M11,P_M11,Q1_M11,Q2_M11,T1_M11,T2_M11,T3_M11,T4_M11,T5_M11,U1_M11,ZSPAN_M11,X0_M11,X2_M11,X1_M11
2022-07-21 18:00:00,,0828.3,4.99,0.00,29.1,27.5,00.0,37.8,31.0,18.4,0000.0,0015.29,0006.43,0005.01
2022-07-21 18:01:00,,0828.3,5.00,0.00,29.1,27.7,00.0,37.8,31.1,18.6,0000.0,0014.90,0006.51,0005.07
2022-07-21 18:02:00,,0828.3,5.01,0.00,29.2,27.8,00.0,37.9,31.2,18.7,0000.0,0014.48,0006.53,0005.12
2022-07-21 18:03:00,,0828.2,4.99,0.00,29.2,27.8,00.0,37.8,31.2,18.9,0000.0,0015.70,0006.61,0005.17
2022-07-21 18:04:00,,0828.3,5.00,0.00,29.2,27.1,00.0,37.8,31.1,18.9,0000.0,0016.29,0006.68,0005.21
2022-07-21 18:05:00,,0828.3,5.01,0.00,29.1,26.8,00.0,37.7,31.0,18.5,0000.0,0017.43,0006.74,0005.23
2022-07-21 18:06:00,,0828.3,4.99,0.00,29.1,26.9,00.0,37.8,31.0,18.7,0000.0,0018.49,0006.75,0005.24
2022-07-21 18:07:00,,0828.3,5.00,0.00,29.1,27.1,00.0,37.8,30.9,18.6,0000.0,0019.57,0006.72,0005.24
2022-07-21 18:08:00,,0828.2,5.00,0.00,29.1,27.3,00.0,37.8,31.0,18.8,0000.0,0019.82,0006.70,0005.24
2022-07-21 18:09:00,,0828.3,5.01,0.00,29.1,27.5,00.0,37.8,31.0,18.7,0000.0,0019.77,0006.68,0005.22
2022-07-21 18:10:00,,0828.2,4.99,0.00,29.1,27.7,00.0,37.8,31.1,18.2,0000.0,0019.09,0006.68,0005.20
2022-07-21 18:11:00,,0828.2,5.01,0.00,29.2,27.9,00.0,37.8,31.1,18.5,0000.0,0018.66,0006.65,0005.18
2022-07-21 18:12:00,,0828.2,4.99,0.00,29.2,27.8,00.0,37.8,31.2,18.3,0000.0,0018.80,0006.59,0005.16
2022-07-21 18:13:00,,0828.4,5.01,0.00,29.2,27.3,00.0,37.8,31.1,17.8,0000.0,0019.83,0006.59,0005.14
2022-07-21 18:14:00,,0828.2,4.99,0.00,29.2,27.0,00.0,37.7,31.0,18.1,0000.0,0019.29,0006.58,0005.13
2022-07-21 18:15:00,,0828.3,5.01,0.00,29.1,27.1,00.0,37.8,31.0,18.0,0000.0,0020.07,0006.54,0005.12
2022-07-21 18:16:00,,0828.3,5.00,0.00,29.1,27.2,00.0,37.8,31.0,18.4,0000.0,0020.31,0006.53,0005.13
2022-07-21 18:17:00,,0828.3,5.00,0.00,29.1,27.4,00.0,37.8,31.0,17.8,0000.0,0019.83,0006.51,0005.14
2022-07-21 18:18:00,,0828.3,5.00,0.00,29.1,27.6,00.0,37.8,31.1,17.8,0000.0,0019.59,0006.49,0005.14
2022-07-21 18:19:00,,0828.3,4.99,0.00,29.2,27.8,00.0,37.8,31.1,18.0,0000.0,0019.72,0006.48,0005.16
2022-07-21 18:20:00,,0828.3,5.00,0.00,29.2,27.8,00.0,37.8,31.2,18.8,0000.0,0019.41,0006.47,0005.18
2022-07-21 18:21:00,,0828.3,5.00,0.00,29.2,27.2,00.0,37.8,31.1,18.3,0000.0,0019.41,0006.53,0005.21
2022-07-21 18:22:00,,0828.2,5.01,0.00,29.1,27.0,00.0,37.7,31.0,17.8,0000.0,0020.31,0006.57,0005.25
2022-07-21 18:23:00,,0828.2,4.99,0.00,29.1,27.1,00.0,37.7,31.0,17.7,0000.0,0021.71,0006.64,0005.28
2022-07-21 18:24:00,,0828.2,5.00,0.00,29.1,27.2,00.0,37.8,31.0,17.8,0000.0,0021.48,0006.67,0005.31
2022-07-21 18:25:00,,0828.2,5.00,0.00,29.1,27.4,00.0,37.8,31.0,17.8,0000.0,0021.27,0006.69,0005.34
2022-07-21 18:26:00,,0828.1,5.01,0.00,29.1,27.6,00.0,37.8,31.0,17.7,0000.0,0019.63,0006.71,0005.36
2022-07-21 18:27:00,,0828.2,5.01,0.00,29.1,27.8,00.0,37.8,31.1,16.5,0000.0,0019.23,0006.74,0005.39
2022-07-21 18:28:00,,0828.1,4.99,0.00,29.2,27.9,00.0,37.8,31.2,16.5,0000.0,0019.18,0006.75,0005.42
2022-07-21 18:29:00,,0828.1,5.00,0.00,29.2,27.6,00.0,37.8,31.2,16.6,0000.0,0018.93,0006.79,0005.45
2022-07-21 18:30:00,,0828.1,4.99,0.00,29.2,27.1,00.0,37.7,31.1,16.9,0000.0,0019.68,0006.81,0005.48
2022-07-21 18:31:00,,0828.0,5.00,0.00,29.1,27.0,00.0,37.7,31.0,16.8,0000.0,0020.18,0006.81,0005.51
2022-07-21 18:32:00,,0828.0,5.00,0.00,29.1,27.1,00.0,37.8,31.0,16.3,0000.0,0020.27,0006.82,0005.53
2022-07-21 18:33:00,,0828.0,5.00,0.00,29.1,27.3,00.0,37.8,31.0,16.1,0000.0,0020.20,0006.80,0005.54
2022-07-21 18:34:00,,0828.0,5.00,0.00,29.1,27.5,00.0,37.8,31.0,16.7,0000.0,0018.99,0006.81,0005.56
2022-07-21 18:35:00,,0828.0,4.99,0.00,29.1,27.7,00.0,37.8,31.1,16.9,0000.0,0019.51,0006.84,0005.58
2022-07-21 18:36:00,,0827.9,5.01,0.00,29.2,27.9,00.0,37.8,31.2,16.3,0000.0,0018.77,0006.79,0005.59
2022-07-21 18:37:00,,0827.9,5.00,0.00,29.2,27.5,00.0,37.8,31.2,16.0,0002.6,0018.72,0006.80,0005.60
2022-07-21 18:38:00,,0827.9,5.01,0.00,29.2,27.0,00.0,37.7,31.1,16.0,0003.9,0018.42,0006.78,0005.62
2022-07-21 18:39:00,,0827.9,5.00,0.00,29.1,26.9,00.0,37.7,31.0,16.0,0003.5,0016.88,0006.79,0005.62
2022-07-21 18:40:00,,0827.8,5.00,0.00,29.1,27.1,00.0,37.8,31.0,16.0,0003.3,0016.91,0006.78,0005.61
2022-07-21 18:41:00,,0827.9,5.00,0.00,29.1,27.2,00.0,37.8,31.0,16.3,0003.6,0016.19,0006.75,0005.60
2022-07-21 18:42:00,,0827.9,4.99,0.00,29.1,27.4,00.0,37.8,31.0,16.1,0003.7,0015.63,0006.74,0005.59
2022-07-21 18:43:00,,0827.9,4.99,0.00,29.1,27.6,00.0,37.8,31.1,15.9,0003.4,0015.76,0006.67,0005.57
2022-07-21 18:44:00,,0827.9,5.00,0.00,29.1,27.8,00.0,37.8,31.1,16.1,0003.2,0015.33,0006.60,0005.54
2022-07-21 18:45:00,,0827.9,4.99,0.00,29.2,27.5,00.0,37.8,31.1,16.1,0002.7,0015.18,0006.58,0005.50
2022-07-21 18:46:00,,0827.9,5.00,0.00,29.1,27.0,00.0,37.7,31.0,15.9,0000.4,0013.92,0006.52,0005.46
2022-07-21 18:47:00,,0827.9,5.00,0.00,29.1,27.0,00.0,37.7,31.0,15.8,0000.0,0014.04,0006.50,0005.43
2022-07-21 18:48:00,,0827.9,4.99,0.00,29.1,27.1,00.0,37.7,30.9,15.7,0000.0,0014.21,0006.50,0005.39
2022-07-21 18:49:00,,0827.9,5.00,0.00,29.1,27.2,00.0,37.8,30.9,15.7,0000.0,0014.60,0006.53,0005.34
2022-07-21 18:50:00,,0827.9,4.99,0.00,29.1,27.4,00.0,37.8,31.0,15.6,0000.0,0015.32,0006.50,0005.32
2022-07-21 18:51:00,,0827.9,5.00,0.00,29.1,27.6,00.0,37.8,31.1,15.6,0000.0,0015.47,0006.46,0005.30
2022-07-21 18:52:00,,0827.9,5.01,0.00,29.1,27.8,00.0,37.8,31.1,15.7,0000.0,0015.51,0006.42,0005.28
2022-07-21 18:53:00,,0827.9,4.99,0.00,29.2,27.5,00.0,37.8,31.1,15.7,0000.0,0015.25,0006.39,0005.25
2022-07-21 18:54:00,,0827.8,5.00,0.00,29.1,27.0,00.0,37.7,31.0,15.8,0000.0,0016.16,0006.46,0005.22
2022-07-21 18:55:00,,0827.8,5.01,0.00,29.1,27.0,00.0,37.7,31.0,15.7,0000.0,0016.58,0006.46,0005.21
2022-07-21 18:56:00,,0827.7,5.00,0.00,29.1,27.1,00.0,37.7,30.9,15.9,0000.0,0016.89,0006.47,0005.20
2022-07-21 18:57:00,,0827.8,4.99,0.00,29.1,27.2,00.0,37.7,30.9,16.1,0000.0,0017.47,0006.47,0005.19
2022-07-21 18:58:00,,0827.7,5.00,0.00,29.1,27.5,00.0,37.8,31.0,15.7,0000.0,0017.73,0006.49,0005.19
2022-07-21 18:59:00,,0827.7,5.01,0.00,29.1,27.7,00.0,37.8,31.0,15.1,0001.0,0017.52,0006.48,0005.23
